Regional Weather Roundup
Issued by NWS

Home | Current Version | Previous Version | Graphics & Text | Print | Product List | Glossary On
Versions: 1 2 3 4 5 6 7 8 9 10 11 12 13 14 15 16 17 18 19 20 21 22 23 24 25 26 27 28 29 30 31 32 33 34 35 36 37 38 39 40 41 42 43 44 45 46 47 48 49 50
574
ASUS43 KDMX 251806
RWRIA

WEATHER ROUNDUP FOR IOWA
NATIONAL WEATHER SERVICE DES MOINES IA
100 PM CDT TUE APR 25 2017

NOTE: "FAIR" INDICATES FEW OR NO CLOUDS BELOW 12,000 FEET WITH NO
SIGNIFICANT WEATHER AND/OR OBSTRUCTIONS TO VISIBILITY.

* - THESE STATIONS ARE NOT NWS STATIONS...THUS NOT UNDER NWS
QUALITY CONTROL.  THEY ALSO DO NOT REPORT WEATHER SUCH
AS PRECIPITATION OR FOG.

IAZ001>003-012>014-020>022-031>034-043>046-251900-
   NORTHWEST IOWA

CITY           SKY/WX    TMP DP  RH WIND       PRES   REMARKS
CARROLL *      CLOUDY    52  46  82 NE14      29.52R
CHEROKEE *     CLOUDY    45  43  93 NE3       29.56R
DENISON *      CLOUDY    50  45  81 NE13      29.53F
LE MARS *      LGT RAIN  43  41  93 N13G18    29.59R
ORANGE CITY *  CLOUDY    43  41  93 N15       29.56R
SHELDON *      CLOUDY    41  39  93 N22       29.52R
SIOUX CITY     CLOUDY    45  42  89 N16       29.57F
6HR MIN TEMP:  43; 6HR MAX TEMP:  45; 6HR PCP:  0.03;

SPENCER        CLOUDY    43  41  93 N22       29.52R
6HR MIN TEMP:  40; 6HR MAX TEMP:  43; 6HR PCP:  0.08;

STORM LAKE *   CLOUDY    45  41  87 NE8       29.55R
$$

IAZ055>058-069>071-079>083-090>094-251900-
   SOUTHWEST IOWA

CITY           SKY/WX    TMP DP  RH WIND       PRES   REMARKS
ATLANTIC *     CLOUDY    61  50  67 N14       29.46F
AUDUBON *      CLOUDY    57  48  72 N10       29.50S
CLARINDA *     CLOUDY    70  52  52 CALM      29.45S
COUNCIL BLFS * PTSUNNY   55  48  76 N16G22    29.47F
CRESTON *      CLOUDY    70  48  46 SE8G15    29.45F
HARLAN  *      CLOUDY    57  48  72 NE17      29.51F
LAMONI         MOSUNNY   69  49  48 S12       29.45F
6HR MIN TEMP:  54; 6HR MAX TEMP:  70; 6HR PCP: TRACE;

RED OAK *      CLOUDY    66  52  59 N14       29.43F
SHENANDOAH *   CLOUDY    68  50  52 N5        29.43F
$$

IAZ047>049-059>061-072>074-084-251900-
   CENTRAL IOWA

CITY           SKY/WX    TMP DP  RH WIND       PRES   REMARKS
AMES           CLOUDY    66  52  60 NE7       29.49F
6HR MIN TEMP:  50; 6HR MAX TEMP:  66; 6HR PCP: TRACE;

ANKENY *       MOSUNNY   68  50  52 S7        29.49F
BOONE *        MOSUNNY   64  50  59 NE8       29.48F
CHARITON *     CLOUDY    72  50  46 SE15      29.46F
DES MOINES     CLOUDY    71  48  43 SE9       29.47F
6HR MIN TEMP:  57; 6HR MAX TEMP:  72; 6HR PCP: TRACE;

GRINNELL*      MOSUNNY   70  48  44 E8        29.50F
KNOXVILLE *    CLOUDY    73  48  40 S16G24    29.46F
MARSHALLTOWN   MOSUNNY   64  52  64 SE8       29.50F
6HR MIN TEMP:  53; 6HR MAX TEMP:  64; 6HR PCP:  0.05;

NEWTON *       MOSUNNY   70  48  46 SE14G21   29.48F
PELLA *        MOSUNNY   74  47  39 SE13G21   29.49F
PERRY *        PTSUNNY   64  49  58 N12       29.48F
$$

IAZ004>006-015-016-023>025-035-036-251900-
   NORTH CENTRAL IOWA

CITY           SKY/WX    TMP DP  RH WIND       PRES   REMARKS
ALGONA *       PTSUNNY   45  45 100 NE18      29.54R
CLARION *      CLOUDY    55  52  88 NE10      29.53R
ESTHERVILLE    LGT RAIN  40  40 100 N23G32    29.51F WCI  30
6HR MIN TEMP:  39; 6HR MAX TEMP:  41; 6HR PCP:  0.12;

FORT DODGE *   CLOUDY    52  45  76 NE14      29.54F
MASON CITY     CLOUDY    51  48  89 N13       29.54F
6HR MIN TEMP:  50; 6HR MAX TEMP:  60; 6HR PCP:  0.06;

FOREST CITY *  CLOUDY    46  45  93 N10       29.54F
WEBSTER CITY * CLOUDY    57  52  82 N9        29.50F
IOWA FALLS *     N/A     64  49  58 SE8       29.54F
$$

IAZ007>011-017>019-026>030-037>042-050>054-066-251900-
   NORTHEAST IOWA

CITY           SKY/WX    TMP DP  RH WIND       PRES   REMARKS
CEDAR RAPIDS   CLOUDY    71  49  45 SE13      29.52S
6HR MIN TEMP:  53; 6HR MAX TEMP:  71; 6HR PCP: TRACE;

CHARLES CITY * DRIZZLE   59  46  63 CALM      29.54F
CLINTON *      CLOUDY    69  46  43 E9        29.55F
DECORAH *      CLOUDY    66  45  45 S7        29.55S
DUBUQUE        CLOUDY    66  45  46 SE12      29.58F
6HR MIN TEMP:  50; 6HR MAX TEMP:  68;

MONTICELLO *   CLOUDY    66  46  48 E12       29.53F
WATERLOO       LGT RAIN  64  53  67 E6        29.51F
6HR MIN TEMP:  54; 6HR MAX TEMP:  65; 6HR PCP:  0.02;

$$

IAZ064-065-067-068-078-251900-
   EAST CENTRAL IOWA

CITY           SKY/WX    TMP DP  RH WIND       PRES   REMARKS
DAVENPORT      PTSUNNY   71  48  43 SE12      29.55F
6HR MIN TEMP:  56; 6HR MAX TEMP:  71; 6HR PCP: TRACE;

IOWA CITY      MOSUNNY   74  50  42 SE12      29.53S
6HR MIN TEMP:  52; 6HR MAX TEMP:  74; 6HR PCP: TRACE;

MT. PLEASANT * MOSUNNY   73  46  37 SE13      29.51F
MUSCATINE *    MOSUNNY   73  46  38 SE10G18   29.52F
QUAD CITIES    PTSUNNY   76  46  34 SE22      29.54F
6HR MIN TEMP:  54; 6HR MAX TEMP:  76;

$$

IAZ062-063-075>077-085>089-095>099-251900-
   SOUTHEAST IOWA

CITY           SKY/WX    TMP DP  RH WIND       PRES   REMARKS
BURLINGTON     PTSUNNY   74  47  38 SE17G25   29.51F
6HR MIN TEMP:  56; 6HR MAX TEMP:  74;

FAIRFIELD *    MOSUNNY   72  46  40 SE16      29.50F
FORT MADISON * MOSUNNY   79  48  34 E15G25    29.51F
KEOKUK *       PTSUNNY   73  48  40 SE15G24   29.50F
OSKALOOSA *      N/A     72  46  39 SE16      29.50S
CENTERVILLE *    N/A     72  50  46 SE13      29.48F
OTTUMWA        MOSUNNY   73  46  38 S17       29.49F
6HR MIN TEMP:  55; 6HR MAX TEMP:  73; 6HR PCP: TRACE;

WASHINGTON *   MOSUNNY   73  46  38 SE15G24   29.52F
$$

ABBREVIATIONS USED IN REMARKS
   TC - TEMPERATURES IN CELSIUS
  WCI - WIND CHILL INDEX
   HX - HEAT INDEX
  VSB - VISIBILITY
$$





USA.gov is the U.S. government's official web portal to all federal, state and local government web resources and services.